Date,TemperatureHighF,TemperatureAvgF,TemperatureLowF,DewpointHighF,DewpointAvgF,DewpointLowF,HumidityHigh,HumidityAvg,HumidityLow,PressureMaxIn,PressureMinIn,WindSpeedMaxMPH,WindSpeedAvgMPH,GustSpeedMaxMPH,PrecipitationSumIn
2013-1-1,24.0,17.7,7.0,22.0,13.1,4.0,93,83,63,30.28,30.13,0,0,0,0.00
2013-1-2,32.0,20.0,7.0,23.0,14.1,4.0,91,79,61,30.26,30.14,9,2,13,0.00
2013-1-3,37.0,26.7,15.0,28.0,21.7,14.0,95,82,61,30.40,30.24,9,4,13,0.00
2013-1-4,40.0,27.9,14.0,26.0,21.0,13.0,95,77,55,30.41,30.27,15,5,21,0.00
2013-1-5,41.0,34.7,30.0,33.0,28.5,23.0,88,78,68,30.27,30.09,12,8,18,0.00
2013-1-6,38.0,28.7,23.0,26.0,21.6,18.0,89,75,49,30.37,30.15,13,6,23,0.00
2013-1-7,50.0,35.5,23.0,28.0,23.2,18.0,81,62,38,30.33,30.09,15,8,21,0.00
2013-1-8,53.0,41.2,32.0,35.0,28.4,24.0,77,62,37,30.19,30.02,13,7,20,0.00
2013-1-9,55.0,41.5,27.0,37.0,31.7,26.0,97,71,40,30.41,30.18,7,3,11,0.00
2013-1-10,52.0,45.3,38.0,51.0,41.1,28.0,96,86,53,30.36,29.77,10,7,20,0.00
2013-1-11,63.0,54.4,48.0,48.0,45.4,43.0,95,74,53,29.82,29.66,15,11,23,0.00
2013-1-12,57.0,34.1,23.0,45.0,26.2,17.0,94,74,42,30.08,29.74,14,9,22,0.00
2013-1-13,24.0,17.7,10.0,17.0,10.5,5.0,88,73,58,30.35,30.01,11,5,16,0.00
2013-1-14,30.0,15.7,6.0,11.0,7.3,3.0,92,71,41,30.48,30.35,5,2,8,0.00
2013-1-15,29.0,17.7,7.0,17.0,10.9,4.0,89,75,50,30.39,30.17,7,2,11,0.00
2013-1-16,40.0,26.1,10.0,24.0,16.9,7.0,88,69,48,30.18,30.04,13,6,21,0.00
2013-1-17,45.0,33.2,27.0,29.0,26.4,21.0,94,77,51,30.46,30.14,11,4,17,0.00
2013-1-18,54.0,39.9,29.0,32.0,27.2,24.0,82,62,37,30.44,30.08,20,11,30,0.00
2013-1-19,58.0,45.3,36.0,36.0,32.0,28.0,72,60,39,30.23,30.00,19,10,27,0.00
2013-1-20,40.0,29.6,22.0,29.0,17.0,11.0,75,59,43,30.36,30.22,11,6,17,0.00
2013-1-21,26.0,18.6,14.0,12.0,6.3,-1.0,82,60,35,30.42,30.35,11,6,18,0.00
2013-1-22,30.0,20.0,13.0,10.0,4.8,0.0,67,52,38,30.41,30.27,7,4,11,0.00
2013-1-23,47.0,29.1,14.0,24.0,16.5,7.0,80,61,37,30.39,30.17,9,4,16,0.00
2013-1-24,28.0,21.4,12.0,16.0,8.0,3.0,75,57,42,30.51,30.17,12,8,18,0.00
2013-1-25,43.0,31.8,22.0,22.0,16.6,11.0,73,54,37,30.25,30.12,10,4,16,0.00
2013-1-26,53.0,37.8,26.0,27.0,23.5,21.0,83,58,33,30.32,30.15,7,4,12,0.00
2013-1-27,59.0,47.9,37.0,51.0,41.6,23.0,88,79,46,30.15,29.82,18,10,26,0.00
2013-1-28,74.0,63.2,54.0,59.0,55.2,51.0,91,76,54,29.90,29.74,23,10,31,0.00
2013-1-29,66.0,53.7,38.0,59.0,51.1,36.0,98,92,73,29.75,29.47,23,8,46,0.00
2013-1-30,38.0,29.0,24.0,37.0,24.5,16.0,97,84,69,29.98,29.44,21,13,31,0.00
2013-1-31,28.0,18.8,10.0,21.0,8.7,0.0,84,65,49,30.46,29.98,20,12,30,0.00
2013-2-1,27.0,18.1,7.0,16.0,6.0,0.0,75,60,42,30.47,30.18,9,5,14,0.00
2013-2-2,43.0,33.8,24.0,32.0,23.5,16.0,84,66,54,30.21,30.06,15,6,26,0.00
2013-2-3,44.0,37.9,32.0,31.0,21.7,12.0,76,54,30,30.28,29.89,13,7,20,0.00
2013-2-4,50.0,39.9,24.0,33.0,27.9,22.0,93,64,47,29.99,29.79,12,7,18,0.00
2013-2-5,57.0,37.7,22.0,35.0,27.8,20.0,95,71,35,30.12,29.92,14,5,20,0.00
2013-2-6,61.0,45.9,32.0,36.0,31.4,27.0,83,59,33,30.14,29.95,12,7,19,0.00
2013-2-7,49.0,43.8,33.0,47.0,40.0,29.0,97,87,61,30.17,29.90,14,8,23,0.00
2013-2-8,35.0,31.9,28.0,29.0,27.2,25.0,89,83,73,30.36,30.17,11,6,21,0.00
2013-2-9,46.0,36.0,27.0,35.0,29.2,25.0,93,78,51,30.28,29.85,11,8,19,0.00
2013-2-10,57.0,46.4,37.0,49.0,36.3,24.0,95,70,39,29.91,29.51,28,17,40,0.00
2013-2-11,48.0,37.2,30.0,28.0,25.6,23.0,83,64,39,30.15,29.91,19,8,30,0.00
2013-2-12,40.0,33.2,25.0,30.0,26.1,22.0,88,76,55,30.17,29.97,5,2,9,0.00
2013-2-13,52.0,38.5,28.0,34.0,29.0,25.0,91,71,41,29.97,29.84,14,8,23,0.00
2013-2-14,50.0,40.7,31.0,33.0,29.1,25.0,85,65,41,30.13,29.85,14,6,23,0.00
2013-2-15,37.0,31.0,24.0,27.0,15.9,6.0,79,55,27,30.35,30.13,13,7,23,0.00
2013-2-16,36.0,28.0,18.0,22.0,17.5,14.0,84,66,47,30.31,30.11,11,4,17,0.00
2013-2-17,59.0,43.4,28.0,30.0,24.6,18.0,68,49,31,30.12,29.76,13,7,22,0.00
2013-2-18,55.0,44.0,27.0,49.0,33.7,19.0,93,68,49,30.06,29.53,23,13,32,0.00
2013-2-19,34.0,26.7,20.0,19.0,12.6,5.0,75,57,29,30.35,30.06,17,9,26,0.00
2013-2-20,26.0,21.7,16.0,15.0,10.5,7.0,67,62,54,30.38,30.19,8,6,14,0.00
2013-2-21,28.0,24.5,21.0,26.0,20.3,13.0,96,85,63,30.21,29.76,15,8,25,0.00
2013-2-22,31.0,24.1,15.0,30.0,19.9,11.0,96,84,71,30.08,29.78,17,9,23,0.00
2013-2-23,27.0,16.1,6.0,16.0,11.6,3.0,94,83,62,30.08,29.98,5,2,7,0.00
2013-2-24,47.0,32.0,12.0,26.0,20.3,10.0,95,65,40,30.06,29.94,8,3,13,0.00
2013-2-25,40.0,33.6,28.0,31.0,26.3,23.0,97,75,56,30.00,29.60,17,8,26,0.00
2013-2-26,33.0,31.6,31.0,32.0,30.4,29.0,98,95,88,29.81,29.45,16,6,27,0.00
2013-2-27,31.0,29.6,26.0,29.0,26.8,23.0,98,89,79,30.00,29.80,17,10,23,0.00
2013-2-28,32.0,29.4,26.0,25.0,24.0,22.0,85,80,73,30.18,30.00,15,10,21,0.00
2013-3-1,30.0,27.8,25.0,25.0,23.7,22.0,91,85,73,30.27,30.15,10,7,16,0.00
2013-3-2,35.0,24.1,12.0,22.0,15.7,10.0,92,71,45,30.34,30.20,9,4,14,0.00
2013-3-3,42.0,30.9,16.0,25.0,19.8,13.0,90,65,45,30.20,29.85,9,6,16,0.00
2013-3-4,52.0,40.3,34.0,32.0,28.7,24.0,78,64,47,29.92,29.68,10,6,17,0.00
2013-3-5,35.0,31.5,28.0,31.0,23.0,17.0,95,71,58,30.30,29.92,25,15,36,0.00
2013-3-6,38.0,28.0,22.0,22.0,18.8,16.0,84,69,48,30.42,30.29,12,5,23,0.00
2013-3-7,46.0,34.2,20.0,29.0,23.4,17.0,88,66,48,30.32,30.17,7,5,13,0.00
2013-3-8,52.0,42.8,34.0,37.0,31.4,26.0,80,65,48,30.26,30.05,8,6,13,0.00
2013-3-9,67.0,52.1,40.0,54.0,43.5,36.0,95,74,45,30.07,29.69,16,10,23,0.00
2013-3-10,56.0,46.2,31.0,54.0,43.8,27.0,95,91,72,29.87,29.60,17,10,25,0.00
2013-3-11,35.0,29.9,27.0,28.0,24.7,22.0,93,81,68,30.00,29.82,15,10,25,0.00
2013-3-12,47.0,34.9,27.0,33.0,25.0,22.0,85,68,42,30.31,30.00,19,8,28,0.00
2013-3-13,43.0,33.0,24.0,25.0,20.6,17.0,80,61,39,30.48,30.31,10,5,18,0.00
2013-3-14,68.0,48.0,32.0,45.0,32.5,22.0,81,57,36,30.36,30.06,19,8,28,0.00
2013-3-15,76.0,56.4,36.0,50.0,43.0,33.0,90,64,35,30.09,29.70,18,8,23,0.00
2013-3-16,60.0,44.4,37.0,47.0,37.2,29.0,90,76,62,30.06,29.70,14,9,22,0.00
2013-3-17,38.0,34.6,33.0,33.0,30.7,28.0,95,86,74,30.06,29.77,13,9,22,0.00
2013-3-18,52.0,40.2,33.0,37.0,30.6,21.0,97,73,34,30.07,29.75,19,8,27,0.00
2013-3-19,41.0,34.6,27.0,34.0,23.8,12.0,93,68,32,30.25,30.07,12,4,19,0.00
2013-3-20,36.0,30.7,23.0,33.0,16.8,5.0,97,59,31,30.36,30.14,16,8,27,0.00
2013-3-21,31.0,26.2,21.0,27.0,17.5,10.0,93,70,45,30.14,29.94,8,4,12,0.00
2013-3-22,35.0,32.0,29.0,34.0,30.4,27.0,97,93,88,30.01,29.95,7,4,11,0.00
2013-3-23,42.0,35.7,32.0,35.0,31.0,27.0,97,84,61,30.02,29.86,11,6,18,0.00
2013-3-24,32.0,29.9,26.0,32.0,27.8,20.0,99,92,78,30.04,29.70,20,14,28,0.00
2013-3-25,32.0,27.0,20.0,26.0,21.8,17.0,91,81,70,30.29,30.00,18,12,25,0.00
2013-3-26,45.0,29.4,19.0,25.0,21.2,17.0,92,73,46,30.39,30.29,9,4,12,0.00
2013-3-27,46.0,35.8,25.0,32.0,26.0,21.0,92,68,48,30.34,30.22,8,4,13,0.00
2013-3-28,65.0,50.6,40.0,43.0,36.1,31.0,71,59,39,30.25,30.13,9,4,13,0.00
2013-3-29,65.0,52.6,38.0,47.0,40.4,35.0,93,67,34,30.23,30.13,9,5,14,0.00
2013-3-30,58.0,50.9,43.0,51.0,44.4,-99.9,97,82,60,30.15,29.89,14,5,21,0.00
2013-3-31,66.0,52.9,42.0,48.0,41.7,31.0,98,69,36,29.98,29.91,13,5,20,0.00
2013-4-1,47.0,40.1,32.0,35.0,26.3,16.0,85,60,33,30.27,29.97,13,7,20,0.00
2013-4-2,47.0,37.4,28.0,25.0,21.5,17.0,73,54,31,30.34,30.26,7,4,13,0.00
2013-4-3,50.0,40.3,30.0,26.0,22.7,18.0,73,51,29,30.38,30.23,10,5,18,0.00
2013-4-4,60.0,46.0,35.0,33.0,27.1,24.0,74,50,27,30.24,30.07,9,3,15,0.00
2013-4-5,68.0,53.1,34.0,42.0,35.7,29.0,85,54,33,30.18,29.93,10,5,16,0.00
2013-4-6,71.0,61.1,53.0,51.0,43.0,36.0,72,52,40,29.93,29.72,26,13,39,0.00
2013-4-7,74.0,60.6,45.0,55.0,48.6,43.0,97,68,35,29.91,29.72,15,5,23,0.00
2013-4-8,76.0,65.3,56.0,60.0,56.1,53.0,89,73,49,29.80,29.71,15,7,23,0.00
2013-4-9,74.0,68.5,64.0,61.0,57.8,56.0,76,69,61,29.84,29.72,13,8,20,0.00
2013-4-10,71.0,51.4,42.0,58.0,48.0,41.0,97,89,61,29.89,29.72,18,8,37,0.00
2013-4-11,43.0,37.4,34.0,41.0,32.0,28.0,95,81,65,29.83,29.74,17,11,25,0.00
2013-4-12,49.0,38.0,32.0,34.0,29.7,27.0,86,73,51,30.03,29.78,14,8,21,0.00
2013-4-13,65.0,48.7,31.0,43.0,35.1,28.0,92,62,38,30.09,29.80,8,3,15,0.00
2013-4-14,78.0,64.3,52.0,56.0,46.2,41.0,90,55,27,29.79,29.51,20,12,33,0.00
2013-4-15,59.0,49.7,44.0,55.0,44.3,39.0,94,82,69,30.00,29.73,12,6,17,0.00
2013-4-16,45.0,42.6,39.0,42.0,38.8,36.0,96,86,78,30.13,29.98,11,9,20,0.00
2013-4-17,80.0,58.7,45.0,68.0,55.0,42.0,98,88,62,30.08,29.64,15,8,25,0.00
2013-4-18,55.0,44.4,37.0,54.0,40.8,27.0,98,87,65,29.92,29.50,17,10,26,0.00
2013-4-19,51.0,41.2,34.0,31.0,26.3,22.0,74,57,34,30.10,29.89,20,11,30,0.00
2013-4-20,58.0,45.0,30.0,36.0,29.4,25.0,84,56,35,30.28,30.10,9,4,13,0.00
2013-4-21,68.0,56.9,47.0,41.0,37.0,28.0,66,48,31,30.28,30.13,15,8,24,0.00
2013-4-22,68.0,58.2,48.0,45.0,39.2,36.0,71,50,31,30.19,29.93,13,6,28,0.00
2013-4-23,56.0,40.5,35.0,48.0,38.0,33.0,96,91,64,30.14,29.96,15,9,25,0.00
2013-4-24,50.0,40.5,32.0,34.0,30.9,23.0,98,71,40,30.25,30.12,12,7,20,0.00
2013-4-25,65.0,50.9,35.0,43.0,36.6,31.0,85,60,33,30.34,30.20,9,5,13,0.00
2013-4-26,57.0,51.4,47.0,47.0,43.4,36.0,93,75,46,30.30,30.19,15,7,23,0.00
2013-4-27,51.0,48.7,47.0,50.0,47.2,45.0,96,95,92,30.24,30.01,8,5,12,0.00
2013-4-28,69.0,57.2,49.0,56.0,49.9,48.0,97,78,52,30.02,29.85,9,4,13,0.00
2013-4-29,83.0,68.5,53.0,64.0,55.0,48.0,82,64,44,29.88,29.71,15,9,21,0.00
2013-4-30,82.0,72.0,61.0,58.0,51.6,45.0,78,51,28,29.89,29.73,16,9,26,0.00
2013-5-1,83.0,70.7,54.0,60.0,53.2,46.0,74,55,34,30.12,29.89,13,6,22,0.00
2013-5-2,54.0,41.4,32.0,46.0,37.6,31.0,95,86,74,30.31,30.11,16,10,26,0.00
2013-5-3,34.0,32.6,32.0,32.0,31.6,31.0,98,96,92,30.25,29.90,11,8,18,0.00
2013-5-4,48.0,38.6,32.0,41.0,34.8,31.0,98,87,66,30.04,29.84,8,4,14,0.00
2013-5-5,62.0,51.0,40.0,54.0,46.1,38.0,94,84,69,30.09,29.99,13,5,20,0.00
2013-5-6,69.0,57.2,50.0,56.0,51.2,49.0,98,82,53,30.10,30.01,8,5,14,0.00
2013-5-7,77.0,63.7,50.0,57.0,51.6,46.0,96,68,35,30.09,29.99,5,2,14,0.00
2013-5-8,72.0,62.5,52.0,59.0,54.0,49.0,93,75,54,30.07,29.93,11,4,16,0.00
2013-5-9,76.0,65.2,59.0,63.0,58.0,55.0,94,78,53,29.94,29.87,15,6,21,0.00
2013-5-10,62.0,56.5,49.0,58.0,50.6,-99.9,95,85,66,30.06,29.90,9,4,15,0.00
2013-5-11,64.0,54.7,44.0,51.0,38.2,-99.9,98,61,27,30.24,30.05,15,6,28,0.00
2013-5-12,64.0,51.9,38.0,42.0,31.1,23.0,81,48,23,30.30,30.16,8,2,14,0.00
2013-5-13,76.0,62.1,46.0,54.0,43.5,33.0,76,53,32,30.19,29.98,10,5,16,0.00
2013-5-14,86.0,73.3,60.0,58.0,54.0,51.0,77,53,31,29.98,29.84,18,11,27,0.00
2013-5-15,82.0,72.4,64.0,67.0,59.2,52.0,86,64,53,29.95,29.86,14,9,22,0.00
2013-5-16,78.0,64.4,60.0,64.0,40.6,-99.9,92,74,53,29.93,29.85,12,4,18,0.00
2013-5-17,79.0,67.3,57.0,64.0,54.3,-99.9,94,74,50,29.97,29.89,5,2,11,0.00
2013-5-18,85.0,72.4,62.0,68.0,63.0,59.0,92,74,51,29.96,29.86,10,4,17,0.00
2013-5-20,75.0,64.8,62.0,68.0,61.6,60.0,95,89,77,29.71,29.62,18,9,32,0.00
2013-5-21,70.0,64.3,60.0,61.0,57.6,56.0,95,79,64,29.77,29.65,12,6,17,0.00
2013-5-22,66.0,60.5,55.0,57.0,53.6,52.0,95,79,64,29.88,29.68,13,6,21,0.00
2013-5-23,67.0,59.7,53.0,56.0,52.2,49.0,90,77,63,30.15,29.88,10,5,18,0.00
2013-5-24,71.0,60.1,49.0,53.0,46.5,40.0,97,65,35,30.30,30.12,9,4,16,0.00
2013-5-25,80.0,67.2,56.0,64.0,55.0,43.0,79,65,55,30.15,29.97,11,6,18,0.00
2013-5-26,83.0,73.4,64.0,67.0,63.2,61.0,88,71,53,30.03,29.88,12,7,20,0.00
2013-5-27,76.0,69.4,62.0,68.0,63.1,58.0,97,81,70,29.97,29.68,12,6,22,0.00
2013-5-28,80.0,72.4,69.0,69.0,65.3,63.0,89,79,68,29.80,29.65,15,8,27,0.00
2013-5-29,82.0,75.0,69.0,67.0,64.5,62.0,87,70,57,29.85,29.68,16,9,26,0.00
2013-5-30,74.0,65.0,62.0,62.0,60.5,59.0,95,86,66,29.77,29.68,12,8,22,0.00
2013-5-31,78.0,66.2,62.0,71.0,62.9,58.0,96,90,72,29.77,29.62,16,6,32,0.00
2013-6-1,71.0,65.2,59.0,63.0,57.8,54.0,95,78,56,29.91,29.65,15,7,21,0.00
2013-6-2,63.0,58.8,52.0,54.0,51.9,48.0,90,78,68,30.03,29.91,10,4,17,0.00
2013-6-3,72.0,60.9,48.0,56.0,51.0,46.0,95,72,48,30.06,29.88,7,2,13,0.00
2013-6-4,74.0,64.8,58.0,62.0,57.9,53.0,94,79,64,30.00,29.88,9,4,15,0.00
2013-6-5,68.0,62.8,58.0,64.0,59.6,56.0,93,89,75,29.94,29.85,7,3,12,0.00
2013-6-6,74.0,66.7,59.0,63.0,56.3,52.0,96,71,47,29.91,29.85,7,4,14,0.00
2013-6-7,74.0,63.6,53.0,56.0,52.5,49.0,93,69,43,29.94,29.85,9,3,17,0.00
2013-6-8,78.0,66.9,52.0,58.0,53.5,50.0,92,65,41,29.91,29.77,10,4,16,0.00
2013-6-9,78.0,69.0,61.0,63.0,59.0,52.0,96,73,40,29.85,29.74,13,7,22,0.00
2013-6-10,86.0,71.0,59.0,63.0,59.7,55.0,91,70,40,29.85,29.77,10,3,16,0.00
2013-6-11,91.0,78.9,69.0,69.0,65.0,60.0,81,64,40,29.88,29.80,14,8,22,0.00
2013-6-12,90.0,81.9,74.0,73.0,69.5,65.0,81,67,52,29.83,29.74,20,10,32,0.00
2013-6-13,85.0,73.9,63.0,67.0,59.8,55.0,84,62,42,30.00,29.83,12,4,22,0.00
2013-6-14,84.0,75.4,66.0,66.0,63.7,61.0,89,69,50,30.03,29.88,12,4,18,0.00
2013-6-15,84.0,72.8,67.0,74.0,66.6,62.0,96,82,67,30.00,29.88,28,6,50,0.00
2013-6-16,84.0,74.3,67.0,72.0,68.5,63.0,92,83,64,29.94,29.85,8,3,14,0.00
2013-6-17,76.0,71.3,66.0,71.0,65.5,63.0,93,82,71,29.94,29.85,9,4,16,0.00
2013-6-18,86.0,73.7,62.0,69.0,63.5,60.0,95,73,43,29.97,29.91,6,3,11,0.00
2013-6-19,86.0,75.1,63.0,66.0,62.7,60.0,94,68,43,30.00,29.94,6,3,12,0.00
2013-6-23,76.0,76.0,76.0,67.0,67.0,67.0,75,75,75,29.91,29.91,9,9,16,0.00
2013-6-24,74.0,74.0,74.0,69.0,69.0,69.0,83,83,83,29.94,29.94,7,7,12,0.00
2013-6-25,79.0,79.0,79.0,67.0,67.0,67.0,67,67,67,29.88,29.88,11,11,17,0.00
2013-6-26,77.0,77.0,77.0,67.0,67.0,67.0,72,72,72,29.74,29.74,9,9,14,0.00
2013-6-27,72.0,72.0,72.0,64.0,64.0,64.0,75,75,75,29.85,29.85,0,0,0,0.00
2013-8-14,-200.0,0.0,200.0,-99.9,-99.9,-99.9,0,0,100,30.12,30.12,4,4,7,0.00
2013-8-15,-200.0,0.0,200.0,-99.9,-99.9,-99.9,0,0,100,30.09,30.03,4,3,9,0.00
2013-8-16,-200.0,0.0,200.0,-99.9,-99.9,-99.9,56,28,56,30.09,30.09,6,6,12,0.00
2013-8-19,65.0,13.0,65.0,60.0,-67.9,-99.9,84,48,50,30.06,30.00,7,4,11,0.00
2013-8-20,-200.0,0.0,200.0,-99.9,-99.9,-99.9,60,60,60,30.03,30.03,6,6,9,0.00
2013-9-28,-200.0,0.0,200.0,-99.9,-99.9,-99.9,0,0,100,30.03,30.03,0,0,0,0.00